Regional Weather Roundup
Issued by NWS Grand Forks, ND

Home | Current Version | Previous Version | Text Only | Print | Product List | Glossary Off
Versions: 1 2 3 4 5 6 7 8 9 10 11 12 13 14 15 16 17 18 19 20 21 22 23 24 25 26 27 28 29 30 31 32 33 34 35 36 37 38 39 40 41 42 43 44 45 46 47 48 49 50

000
ASUS43 KFGF 260310
RWRFGF
PRAIRIE TO PINES  WEATHER ROUNDUP
NATIONAL WEATHER SERVICE EASTERN NORTH DAKOTA/GRAND FORKS ND
1000 PM CDT THU MAY 25 2017

 **SATELLITE DATA USED TO AUGMENT SKY COVER AT AUTOMATED STATIONS**
 *****  WEATHER ACROSS EASTERN NORTH DAKOTA  *****

CITY           SKY/WX    TMP DP  RH WIND       PRES   REMARKS
GRAND FORKS    FAIR      63  51  65 SE13      29.51R
GRAND FRKS AFB FAIR      62  51  66 SE13      29.51R
DEVILS LAKE    FAIR      60  46  59 W15       29.52R
FARGO          FAIR      64  53  67 S15       29.55R
WAHPETON ARPT  CLOUDY    61  52  72 SE10      29.58R
$$

 ***** WEATHER ACROSS CENTRAL AND WESTERN NORTH DAKOTA  *****

CITY           SKY/WX    TMP DP  RH WIND       PRES   REMARKS
BISMARCK       CLOUDY    61  44  53 W10       29.60R
MINOT          FAIR      59  43  55 SW10      29.52R
JAMESTOWN      FAIR      60  45  57 W9        29.54R
MINOT AFB      MOCLDY    57  43  59 W8        29.51R
GARRISON         N/A     55  41  59 W10       29.55R
WILLISTON      CLOUDY    57  44  62 W20       29.57R
DICKINSON      CLOUDY    53  42  66 W16       29.62R
HETTINGER      FAIR      50  43  77 W17       29.70R
$$

 *****  OTHER AIRPORT OBSERVATIONS IN OUR AREA  *****

CITY           SKY/WX    TMP DP  RH WIND       PRES   REMARKS
WALHALLA       NOT AVBL
GRAFTON AIRPOR FAIR      61  50  67 SE14      29.51R
VALLEY CITY AR FAIR      57  54  88 S5        29.55R
CANDO          NOT AVBL
CAVALIER APRT  FAIR      63  50  63 SE13      29.48R
GWINNER        CLEAR     59  52  77 MISG      29.55R
SHEYENNE NWR     N/A     61  53  75 S8        29.95S
ROLLA          FAIR      55  46  71 SW13      29.50R
 ***** THE ABOVE OBSERVATIONS ARE NON NWS ARE NOT QUALITY
       CONTROLLED AND MAY MIS-REPORT RAIN FOR SNOW...
$$

  *****  WEATHER ACROSS NORTHERN MINNESOTA  *****

CITY           SKY/WX    TMP DP  RH WIND       PRES   REMARKS
FLAG ISLAND    CLOUDY    57  50  77 SE14      29.59S
WARROAD        CLOUDY    63  50  63 S12       29.61R
ROSEAU         CLOUDY    63  52  67 SE10      29.59R
HALLOCK        FAIR      63  48  59 SE13      29.51R
THF RVR FALLS  CLOUDY    62  48  60 SE14      29.58R
BAUDETTE       CLOUDY    61  47  59 S9        29.63R
WASKISH        CLOUDY    61  50  67 SE8       29.63S
CROOKSTON      FAIR      61  48  63 S13       29.55R
STEPHEN NDAWN    N/A     61  48  63 SE13        N/A
GREENBUSH NDAW   N/A     63  48  59 SE16        N/A
$$
  *****  WEATHER ACROSS CENTRAL AND WEST MINNESOTA  *****

CITY           SKY/WX    TMP DP  RH WIND       PRES   REMARKS
FOSSTON        CLOUDY    61  48  63 SE12      29.60R
BEMIDJI        CLOUDY    59  49  70 SE9       29.63R
PARK RAPIDS    LGT RAIN  62  47  57 SE13      29.63R
ELBOW LAKE     MOCLDY    58  53  84 SE8       29.61R
WADENA         CLOUDY    57  52  82 SE8       29.63R
DETROIT LAKES  CLOUDY    61  50  67 SE12      29.62R
MOORHEAD       FAIR      64  52  63 S16       29.57R
FERGUS FALLS   CLOUDY    63  52  67 S10       29.58R
MORRIS MN      FAIR      59  54  82 SE7       29.61R
STAPLES        CLOUDY    55  52  88 SE3       29.65R
$$
  *****  WEATHER ELSEWHERE ACROSS MINNESOTA  *****

CITY           SKY/WX    TMP DP  RH WIND       PRES   REMARKS
DULUTH         MOCLDY    55  44  66 E10       29.71R
INTRNTL FALLS  CLOUDY    59  47  64 SE6       29.65S
ELY            MOCLDY    55  43  62 SE5       29.73R
CLOQUET        CLOUDY    52  43  71 E6        29.72R
WHEATON        FAIR      61  52  72 S10       29.60R
BRAINERD       LGT RAIN  57  53  86 E3        29.66R
HIBBING        CLOUDY    56  45  66 SE8       29.70R
ALEXANDRIA     CLOUDY    61  52  72 SE10      29.64R
SAINT CLOUD    CLOUDY    60  55  83 SE5       29.66R
MINNEAPOLIS    LGT RAIN  65  53  65 S7        29.67R
$$

  *****  WEATHER ACROSS SOUTH DAKOTA  *****

CITY           SKY/WX    TMP DP  RH WIND       PRES   REMARKS
SIOUX FALLS    FAIR      61  53  75 S7        29.62R
BROOKINGS      FAIR      59  53  80 CALM      29.62R
WATERTOWN      FAIR      55  53  93 S8        29.60R
HURON          FAIR      61  53  75 S6        29.58R
SISSETON         N/A     59  55  87 S7        29.57R
ABERDEEN       MOCLDY    58  46  64 S5        29.56R
MITCHELL       FAIR      64  55  72 S3        29.60R
PIERRE         CLOUDY    66  39  37 NW20G26   29.63R
MOBRIDGE       FAIR      63  41  44 NW16      29.61R
RAPID CITY     FAIR      53  40  61 N21       29.74R
$$

  *****  SOME WEATHER IN NEARBY STATES *****

CITY           SKY/WX    TMP DP  RH WIND       PRES   REMARKS
GLASGOW MT     CLOUDY    52  38  58 NW28G36   29.68R
GREAT FALLS MT CLOUDY    48  39  71 NW8       29.87R
CHEYENNE WY    MOCLDY    49  43  80 W8        29.83R
SCOTTSBLUFF NE MOCLDY    57  52  83 CALM      29.74R
OMAHA NE       MOCLDY    69  54  58 SE10      29.64R
DES MOINES IA  CLOUDY    68  51  54 S7        29.68R
DAVENPORT IA   FAIR      62  55  77 SE6       29.76R
CHICAGO IL     FAIR      57  49  74 CALM      29.75R
EAU CLAIRE WI  FAIR      62  51  67 CALM      29.71R
LA CROSSE WI   FAIR      62  55  77 E5        29.71R
$$

  *****  SOME NATIONAL WEATHER *****

CITY           SKY/WX    TMP DP  RH WIND       PRES   REMARKS
LA GUARDIA NY  DRIZZLE   57  56  96 NE20      29.48F
RALEIGH NC     FAIR      62  56  80 SW12      29.72R
ATLANTA GA     FAIR      63  52  67 SW3       29.91R
NEW ORLEANS LA FAIR      73  63  70 S7        29.91R
OKLAHOMA CITY  MOCLDY    76  59  55 S15       29.53R
ALBUQUERQUE NM MOCLDY    76   0   5 W16       29.84R
SALT LAKE CITY FAIR      64  30  27 N9        29.70S
LOS ANGELES CA MOCLDY    61  52  72 W13       29.87R
BOISE ID       FAIR      60  34  37 NW15G23   29.73R
SEATTLE WA     FAIR      66  45  46 N10       29.85R
$$

*** WEATHER ACROSS MANITOBA...SASKATCHEWAN AND ONTARIO ***
                ***ONTARIO***

CITY           SKY/WX    TMP DP  RH WIND       PRES   REMARKS
GERALDTON      PTCLDY    59  48  67 E5        29.77R
THUNDER BAY    PTCLDY    50  43  76 E7        29.75R
SIOUX LOOKOUT  MOCLDY    61  43  51 SE5       29.67R
TORONTO        LGT RAIN  54  54 100 E8G18     29.54S FOG
BIG TROUT LK   CLEAR     59  30  33 SE8       29.70R
PICKLE LAKE    NOT AVBL
DRYDEN         MOCLDY    63  45  51 S10       29.66R
KENORA         CLOUDY    61  46  59 S9        29.62R
$$
                *** MANITOBA***

CITY           SKY/WX    TMP DP  RH WIND       PRES   REMARKS
BRANDON        PTCLDY    57  48  72 SW12      29.42R
DAUPHIN        PTCLDY    57  52  82 SE9       29.36R
ISLAND LAKE    NOT AVBL
PILOT MOUND      N/A     57  48  72 SW12        N/A
THE PAS        CLOUDY    50  48  93 NE5       29.43R
THOMPSON       CLOUDY    57  45  62 VRB2      29.57R
WINNIPEG       PTCLDY    61  48  63 SE18G28   29.49R
LYNN LAKE      LGT RAIN  50  48  93 E8        29.56F
CHURCHILL      CLOUDY    37  36  93 E12       29.69R
GILLAM         CLOUDY    64  32  29 SE3       29.60R
$$
                ***SASKATCHEWAN***

CITY           SKY/WX    TMP DP  RH WIND       PRES   REMARKS
ESTEVAN        MOCLDY    55  45  67 W13       29.50R
KINDERSLEY     MOCLDY    48  43  81 NW12G18   29.66R
LLOYDMINSTER   MOCLDY    50  45  81 N2        29.66R
PRINCE ALBERT  LGT RAIN  50  48  93 N5        29.44S
REGINA         MOCLDY    54  43  66 NW18G24   29.46R
YORKTON          N/A     50  48  93 NW13G18   29.37R
N. BATTLEFORD  CLOUDY    48  41  76 N20G25    29.60R
LA RONGE       CLOUDY    52  50  93 N8        29.48R
SASKATOON      CLOUDY    50  46  87 NW20G26   29.50R
SWIFT CURRENT  LGT RAIN  45  43  93 NW21      29.62R
$$
NOTE: THESE ARE AUTOMATED STATIONS WITH LIMITED QUALITY CONTROL
      "FAIR" INDICATES FEW OR NO CLOUDS BELOW 12,000 FEET WITH NO
      SIGNIFICANT WEATHER AND/OR OBSTRUCTIONS TO VISIBILITY.
      SKY/WX - SKY CONDITION AND SIGNIFICANT WEATHER.
      TMP - AIR TEMPERATURE.    DP   - DEWPOINT TEMPERATURE.
      RH  - RELATIVE HUMIDITY.  PRES - PRESSURE.
      HX  - HEAT INDEX.         WCI  - WIND CHILL INDEX.
$




USA.gov is the U.S. government's official web portal to all federal, state and local government web resources and services.